TimeMST,TemperatureF,Dew PointF,Humidity,Sea Level PressureIn,VisibilityMPH,Wind Direction,Wind SpeedMPH,Gust SpeedMPH,PrecipitationIn,Events,Conditions,WindDirDegrees,DateUTC
12:53 AM,34.0,17.1,50,30.06,10.0,SW,19.6,-,N/A,,Clear,230,2013-11-24 07:53:00
1:53 AM,32.0,16.0,52,30.06,10.0,WSW,10.4,-,N/A,,Clear,240,2013-11-24 08:53:00
2:53 AM,34.0,16.0,48,30.04,10.0,SW,17.3,-,N/A,,Clear,230,2013-11-24 09:53:00
3:53 AM,34.0,16.0,48,30.02,10.0,SW,21.9,-,N/A,,Clear,220,2013-11-24 10:53:00
4:53 AM,32.0,16.0,52,30.05,10.0,WSW,11.5,-,N/A,,Clear,250,2013-11-24 11:53:00
5:53 AM,32.0,16.0,52,30.06,10.0,West,8.1,-,N/A,,Clear,260,2013-11-24 12:53:00
6:53 AM,30.9,16.0,54,30.07,10.0,SW,13.8,-,N/A,,Clear,220,2013-11-24 13:53:00
7:53 AM,28.9,16.0,58,30.11,10.0,SW,10.4,-,N/A,,Clear,230,2013-11-24 14:53:00
8:53 AM,34.0,17.1,50,30.10,10.0,SW,11.5,-,N/A,,Clear,220,2013-11-24 15:53:00
9:53 AM,36.0,19.0,50,30.10,10.0,WSW,12.7,-,N/A,,Clear,250,2013-11-24 16:53:00
10:53 AM,41.0,21.0,45,30.09,10.0,WSW,8.1,-,N/A,,Clear,240,2013-11-24 17:53:00
11:53 AM,44.1,23.0,43,30.07,10.0,WSW,5.8,-,N/A,,Clear,240,2013-11-24 18:53:00
12:53 PM,46.9,23.0,39,30.04,10.0,SW,10.4,-,N/A,,Clear,220,2013-11-24 19:53:00
1:53 PM,48.0,24.1,39,30.05,10.0,SW,8.1,-,N/A,,Clear,230,2013-11-24 20:53:00
2:53 PM,48.9,23.0,36,30.05,10.0,SW,9.2,-,N/A,,Clear,230,2013-11-24 21:53:00
3:53 PM,45.0,24.1,44,30.06,10.0,SSW,5.8,-,N/A,,Clear,200,2013-11-24 22:53:00
4:53 PM,37.9,23.0,55,30.12,10.0,NNE,6.9,-,N/A,,Clear,20,2013-11-24 23:53:00
5:53 PM,28.9,21.9,75,30.14,10.0,ENE,3.5,-,N/A,,Clear,70,2013-11-25 00:53:00
6:53 PM,37.0,25.0,62,30.18,10.0,NE,11.5,-,N/A,,Clear,40,2013-11-25 01:53:00
7:53 PM,28.9,21.9,75,30.24,10.0,SE,4.6,-,N/A,,Clear,140,2013-11-25 02:53:00
8:53 PM,26.1,21.9,84,30.27,10.0,WNW,5.8,-,N/A,,Clear,290,2013-11-25 03:53:00
9:53 PM,21.0,18.0,88,30.30,10.0,WNW,5.8,-,N/A,,Clear,290,2013-11-25 04:53:00
10:53 PM,23.0,19.0,85,30.31,10.0,WSW,6.9,-,N/A,,Clear,240,2013-11-25 05:53:00
11:53 PM,23.0,19.9,88,30.32,10.0,WSW,9.2,-,N/A,,Clear,250,2013-11-25 06:53:00